TimeMDT,TemperatureF,Dew PointF,Humidity,Sea Level PressureIn,VisibilityMPH,Wind Direction,Wind SpeedMPH,Gust SpeedMPH,PrecipitationIn,Events,Conditions,WindDirDegrees,DateUTC
12:53 AM,59.0,55.0,87,30.01,10.0,Calm,Calm,-,N/A,,Partly Cloudy,0,2013-09-08 06:53:00
1:53 AM,55.9,55.0,97,30.00,10.0,North,5.8,-,N/A,,Clear,350,2013-09-08 07:53:00
2:07 AM,55.4,55.4,100,30.05,3.0,North,4.6,-,N/A,,Scattered Clouds,350,2013-09-08 08:07:00
2:13 AM,55.4,55.4,100,30.05,2.5,NNW,3.5,-,N/A,,Mostly Cloudy,330,2013-09-08 08:13:00
2:15 AM,55.4,55.4,100,30.05,1.2,Calm,Calm,-,N/A,,Mostly Cloudy,0,2013-09-08 08:15:00
2:23 AM,55.4,55.4,100,30.05,0.5,Calm,Calm,-,N/A,Fog,Fog,0,2013-09-08 08:23:00
2:34 AM,57.2,57.2,100,30.05,1.0,Calm,Calm,-,N/A,,Overcast,0,2013-09-08 08:34:00
2:46 AM,59.0,59.0,100,30.05,0.2,Calm,Calm,-,N/A,Fog,Fog,0,2013-09-08 08:46:00
2:53 AM,57.9,57.9,100,29.99,0.2,WSW,3.5,-,N/A,Fog,Fog,240,2013-09-08 08:53:00
3:09 AM,57.2,57.2,100,30.06,0.2,WSW,5.8,-,N/A,Fog,Fog,240,2013-09-08 09:09:00
3:53 AM,59.0,59.0,100,29.98,0.2,SW,3.5,-,N/A,Fog,Fog,230,2013-09-08 09:53:00
4:34 AM,59.0,59.0,100,30.04,0.2,Calm,Calm,-,N/A,Fog,Fog,0,2013-09-08 10:34:00
4:51 AM,59.0,59.0,100,30.04,0.8,Calm,Calm,-,N/A,,Overcast,0,2013-09-08 10:51:00
4:52 AM,59.0,59.0,100,29.98,1.2,Calm,Calm,-,N/A,,Overcast,0,2013-09-08 10:52:00
5:09 AM,59.0,59.0,100,30.04,1.5,Calm,Calm,-,N/A,,Overcast,0,2013-09-08 11:09:00
5:16 AM,59.0,59.0,100,30.04,3.0,Calm,Calm,-,N/A,,Overcast,0,2013-09-08 11:16:00
5:19 AM,59.0,59.0,100,30.04,1.5,WSW,3.5,-,N/A,,Overcast,240,2013-09-08 11:19:00
5:23 AM,59.0,59.0,100,30.04,0.8,WSW,3.5,-,N/A,,Overcast,240,2013-09-08 11:23:00
5:31 AM,59.0,59.0,100,30.04,0.5,SW,3.5,-,N/A,Fog,Fog,220,2013-09-08 11:31:00
5:53 AM,59.0,59.0,100,29.98,0.2,SSW,3.5,-,N/A,Fog,Fog,210,2013-09-08 11:53:00
6:01 AM,59.0,59.0,100,30.03,0.5,Calm,Calm,-,N/A,Fog,Fog,0,2013-09-08 12:01:00
6:44 AM,59.0,59.0,100,30.03,1.0,Calm,Calm,-,N/A,,Overcast,0,2013-09-08 12:44:00
6:53 AM,57.9,57.9,100,29.98,1.0,Calm,Calm,-,N/A,,Overcast,0,2013-09-08 12:53:00
6:59 AM,57.2,57.2,100,30.03,0.8,Calm,Calm,-,N/A,,Overcast,0,2013-09-08 12:59:00
7:06 AM,57.2,57.2,100,30.03,0.2,Calm,Calm,-,N/A,Fog,Fog,0,2013-09-08 13:06:00
7:14 AM,57.2,57.2,100,30.03,0.2,Calm,Calm,-,N/A,Fog,Fog,0,2013-09-08 13:14:00
7:30 AM,59.0,59.0,100,30.03,0.2,Calm,Calm,-,N/A,Fog,Fog,0,2013-09-08 13:30:00
7:53 AM,59.0,59.0,100,29.97,0.5,Calm,Calm,-,N/A,Fog,Fog,0,2013-09-08 13:53:00
8:04 AM,59.0,59.0,100,30.03,1.0,Calm,Calm,-,N/A,,Overcast,0,2013-09-08 14:04:00
8:11 AM,59.0,59.0,100,30.02,1.0,Calm,Calm,-,N/A,,Overcast,0,2013-09-08 14:11:00
8:53 AM,60.1,60.1,100,29.96,1.0,South,3.5,-,N/A,,Overcast,180,2013-09-08 14:53:00
9:06 AM,60.8,60.8,100,30.01,4.0,Calm,Calm,-,N/A,,Overcast,0,2013-09-08 15:06:00
9:27 AM,60.8,60.8,100,30.00,7.0,Calm,Calm,-,N/A,,Overcast,0,2013-09-08 15:27:00
9:46 AM,62.6,59.0,88,30.00,9.0,Calm,Calm,-,N/A,,Overcast,0,2013-09-08 15:46:00
9:53 AM,63.0,59.0,87,29.94,10.0,Calm,Calm,-,N/A,,Overcast,0,2013-09-08 15:53:00
10:29 AM,62.6,60.8,94,29.99,10.0,North,4.6,-,N/A,,Overcast,10,2013-09-08 16:29:00
10:48 AM,64.4,59.0,83,29.99,10.0,NNE,4.6,-,N/A,,Overcast,30,2013-09-08 16:48:00
10:53 AM,64.9,59.0,81,29.93,10.0,NE,5.8,-,N/A,,Overcast,50,2013-09-08 16:53:00
11:53 AM,69.1,57.9,68,29.90,10.0,Variable,3.5,-,N/A,,Mostly Cloudy,0,2013-09-08 17:53:00
12:53 PM,70.0,55.9,61,29.89,10.0,Variable,4.6,-,N/A,,Partly Cloudy,0,2013-09-08 18:53:00
1:53 PM,59.0,53.1,81,29.95,10.0,WNW,20.7,28.8,0.00,,Mostly Cloudy,300,2013-09-08 19:53:00
2:53 PM,66.9,52.0,59,29.91,10.0,NW,11.5,-,0.00,,Scattered Clouds,320,2013-09-08 20:53:00
3:53 PM,64.9,50.0,58,29.91,10.0,Calm,Calm,-,0.01,,Mostly Cloudy,0,2013-09-08 21:53:00
4:53 PM,66.0,51.1,59,29.89,10.0,SE,5.8,-,N/A,,Clear,130,2013-09-08 22:53:00
5:53 PM,64.9,52.0,63,29.88,10.0,South,5.8,-,N/A,,Clear,190,2013-09-08 23:53:00
6:53 PM,63.0,52.0,67,29.87,10.0,SSW,4.6,-,N/A,,Partly Cloudy,210,2013-09-09 00:53:00
7:37 PM,60.8,44.6,55,29.92,10.0,West,12.7,-,N/A,,Scattered Clouds,280,2013-09-09 01:37:00
7:53 PM,59.0,46.0,62,29.89,10.0,WNW,8.1,-,N/A,,Partly Cloudy,290,2013-09-09 01:53:00
8:53 PM,57.0,46.0,67,29.91,10.0,West,4.6,-,N/A,,Mostly Cloudy,270,2013-09-09 02:53:00
9:53 PM,57.0,46.0,67,29.91,10.0,WSW,10.4,-,N/A,,Mostly Cloudy,240,2013-09-09 03:53:00
10:53 PM,54.0,44.1,69,29.90,10.0,SW,10.4,-,N/A,,Clear,230,2013-09-09 04:53:00
11:53 PM,50.0,44.1,80,29.91,10.0,SW,8.1,-,N/A,,Clear,220,2013-09-09 05:53:00